Time,TemperatureF,DewpointF,PressureIn,WindDirection,WindDirectionDegrees,WindSpeedMPH,WindSpeedGustMPH,Humidity,HourlyPrecipIn,Conditions,Clouds,dailyrainin,SoftwareType,DateUTC
2013-12-10 00:01:00,34.6,32.8,29.92,SSW,210,3.0,4.0,93,0.00,,---,0.12,VWS V14.00,2013-12-10 05:01:00,
2013-12-10 00:02:00,34.6,32.8,29.91,West,279,0.0,4.0,93,0.00,,---,0.12,VWS V14.00,2013-12-10 05:02:00,
2013-12-10 00:03:00,34.6,32.8,29.91,West,271,1.0,2.0,93,0.00,,---,0.00,VWS V14.00,2013-12-10 05:03:00,
2013-12-10 00:04:00,34.6,32.8,29.91,West,271,0.0,2.0,93,0.00,,---,0.00,VWS V14.00,2013-12-10 05:04:00,
2013-12-10 00:09:00,34.6,32.8,29.92,West,262,0.0,1.0,93,0.00,,---,0.00,VWS V14.00,2013-12-10 05:09:00,
2013-12-10 00:14:00,34.6,32.8,29.91,SW,225,0.0,0.0,93,0.00,,---,0.00,VWS V14.00,2013-12-10 05:14:00,
2013-12-10 00:19:00,34.5,32.7,29.91,SW,225,0.0,0.0,93,0.00,,---,0.00,VWS V14.00,2013-12-10 05:19:00,
2013-12-10 00:24:00,34.3,32.5,29.91,SW,224,0.0,0.0,93,0.00,,---,0.00,VWS V14.00,2013-12-10 05:24:00,
2013-12-10 00:29:00,34.2,32.4,29.91,SW,224,0.0,0.0,93,0.00,,---,0.00,VWS V14.00,2013-12-10 05:29:00,
2013-12-10 00:34:00,33.9,32.1,29.91,SW,224,0.0,0.0,93,0.00,,---,0.00,VWS V14.00,2013-12-10 05:34:00,
2013-12-10 00:39:00,33.6,31.8,29.91,SW,224,0.0,0.0,93,0.00,,---,0.00,VWS V14.00,2013-12-10 05:39:00,
2013-12-10 00:44:00,33.5,32.0,29.90,SW,225,0.0,0.0,94,0.00,,---,0.00,VWS V14.00,2013-12-10 05:44:00,
2013-12-10 00:50:00,33.5,32.0,29.90,SW,225,0.0,0.0,94,0.00,,---,0.00,VWS V14.00,2013-12-10 05:50:00,
2013-12-10 00:55:00,33.4,31.9,29.90,SW,225,0.0,0.0,94,0.00,,---,0.00,VWS V14.00,2013-12-10 05:55:00,
2013-12-10 01:00:00,33.4,31.9,29.91,SW,226,0.0,0.0,94,0.00,,---,0.00,VWS V14.00,2013-12-10 06:00:00,
2013-12-10 01:05:00,33.3,31.8,29.90,SW,226,0.0,0.0,94,0.00,,---,0.00,VWS V14.00,2013-12-10 06:05:00,
2013-12-10 01:10:00,33.2,31.7,29.90,SW,226,0.0,0.0,94,0.00,,---,0.00,VWS V14.00,2013-12-10 06:10:00,
2013-12-10 01:15:00,33.3,32.0,29.90,SW,226,0.0,0.0,95,0.00,,---,0.00,VWS V14.00,2013-12-10 06:15:00,
2013-12-10 01:20:00,33.3,31.8,29.90,WSW,256,0.0,0.0,94,0.00,,---,0.00,VWS V14.00,2013-12-10 06:20:00,
2013-12-10 01:25:00,33.2,31.7,29.90,WSW,256,0.0,0.0,94,0.00,,---,0.00,VWS V14.00,2013-12-10 06:25:00,
2013-12-10 01:30:00,32.9,31.4,29.90,WSW,256,0.0,0.0,94,0.00,,---,0.00,VWS V14.00,2013-12-10 06:30:00,
2013-12-10 01:35:00,32.7,31.2,29.90,SW,230,0.0,0.0,94,0.00,,---,0.00,VWS V14.00,2013-12-10 06:35:00,
2013-12-10 01:40:00,32.7,31.4,29.90,SW,231,0.0,0.0,95,0.00,,---,0.00,VWS V14.00,2013-12-10 06:40:00,
2013-12-10 01:45:00,32.8,31.5,29.89,SW,230,0.0,0.0,95,0.00,,---,0.00,VWS V14.00,2013-12-10 06:45:00,
2013-12-10 01:50:00,32.6,31.1,29.89,SW,230,0.0,0.0,94,0.00,,---,0.00,VWS V14.00,2013-12-10 06:50:00,
2013-12-10 01:55:00,32.5,31.2,29.89,West,279,0.0,0.0,95,0.00,,---,0.00,VWS V14.00,2013-12-10 06:55:00,
2013-12-10 02:00:00,32.7,31.4,29.89,WSW,257,2.0,2.0,95,0.00,,---,0.00,VWS V14.00,2013-12-10 07:00:00,
2013-12-10 02:06:00,32.8,31.5,29.89,WSW,255,0.0,1.0,95,0.00,,---,0.00,VWS V14.00,2013-12-10 07:06:00,
2013-12-10 02:11:00,32.8,31.5,29.90,WSW,240,0.0,1.0,95,0.00,,---,0.00,VWS V14.00,2013-12-10 07:11:00,
2013-12-10 02:16:00,32.8,31.5,29.90,WSW,255,1.0,1.0,95,0.00,,---,0.00,VWS V14.00,2013-12-10 07:16:00,
2013-12-10 02:21:00,32.9,31.6,29.90,WSW,248,2.0,2.0,95,0.00,,---,0.00,VWS V14.00,2013-12-10 07:21:00,
2013-12-10 02:26:00,32.9,31.6,29.90,WSW,245,0.0,1.0,95,0.00,,---,0.00,VWS V14.00,2013-12-10 07:26:00,
2013-12-10 02:31:00,32.9,31.6,29.90,WSW,242,0.0,1.0,95,0.00,,---,0.00,VWS V14.00,2013-12-10 07:31:00,
2013-12-10 02:36:00,33.2,31.7,29.89,WSW,238,0.0,2.0,94,0.00,,---,0.00,VWS V14.00,2013-12-10 07:36:00,
2013-12-10 02:41:00,33.2,31.7,29.89,WSW,238,0.0,0.0,94,0.00,,---,0.00,VWS V14.00,2013-12-10 07:41:00,
2013-12-10 02:46:00,33.2,31.7,29.89,WSW,238,0.0,0.0,94,0.00,,---,0.00,VWS V14.00,2013-12-10 07:46:00,
2013-12-10 02:51:00,33.2,31.7,29.89,WSW,238,0.0,0.0,94,0.00,,---,0.00,VWS V14.00,2013-12-10 07:51:00,
2013-12-10 02:56:00,33.2,31.7,29.89,WSW,238,0.0,0.0,94,0.00,,---,0.00,VWS V14.00,2013-12-10 07:56:00,
2013-12-10 03:01:00,33.2,31.7,29.89,WSW,238,0.0,0.0,94,0.00,,---,0.00,VWS V14.00,2013-12-10 08:01:00,
2013-12-10 03:06:00,33.2,31.7,29.89,WSW,238,0.0,0.0,94,0.00,,---,0.00,VWS V14.00,2013-12-10 08:06:00,
2013-12-10 03:11:00,33.2,31.7,29.88,WSW,238,0.0,0.0,94,0.00,,---,0.00,VWS V14.00,2013-12-10 08:11:00,
2013-12-10 03:17:00,33.2,31.7,29.88,WSW,238,0.0,0.0,94,0.00,,---,0.00,VWS V14.00,2013-12-10 08:17:00,
2013-12-10 03:22:00,33.2,31.7,29.88,WSW,238,0.0,0.0,94,0.00,,---,0.00,VWS V14.00,2013-12-10 08:22:00,
2013-12-10 03:27:00,33.2,31.7,29.88,WSW,238,0.0,0.0,94,0.00,,---,0.00,VWS V14.00,2013-12-10 08:27:00,
2013-12-10 03:32:00,33.2,31.7,29.88,WSW,238,0.0,0.0,94,0.00,,---,0.00,VWS V14.00,2013-12-10 08:32:00,
2013-12-10 03:37:00,33.2,31.7,29.88,WSW,238,0.0,0.0,94,0.00,,---,0.00,VWS V14.00,2013-12-10 08:37:00,
2013-12-10 03:42:00,33.2,31.7,29.88,WSW,238,0.0,0.0,94,0.00,,---,0.00,VWS V14.00,2013-12-10 08:42:00,
2013-12-10 03:47:00,33.2,31.7,29.89,WSW,238,0.0,0.0,94,0.00,,---,0.00,VWS V14.00,2013-12-10 08:47:00,
2013-12-10 03:52:00,33.2,31.7,29.90,WSW,238,0.0,0.0,94,0.00,,---,0.00,VWS V14.00,2013-12-10 08:52:00,
2013-12-10 03:57:00,33.2,31.7,29.91,WSW,238,0.0,0.0,94,0.00,,---,0.00,VWS V14.00,2013-12-10 08:57:00,
2013-12-10 04:02:00,33.2,31.7,29.91,WSW,238,0.0,0.0,94,0.00,,---,0.00,VWS V14.00,2013-12-10 09:02:00,
2013-12-10 04:05:00,33.2,31.7,29.92,WSW,238,0.0,0.0,94,0.00,,---,0.00,VWS V14.00,2013-12-10 09:05:00,
2013-12-10 04:10:00,33.2,31.7,29.93,WSW,238,0.0,0.0,94,0.00,,---,0.00,VWS V14.00,2013-12-10 09:10:00,
2013-12-10 04:15:00,33.2,31.7,29.94,WSW,238,0.0,0.0,94,0.00,,---,0.00,VWS V14.00,2013-12-10 09:15:00,
2013-12-10 04:20:00,33.2,31.7,29.93,WSW,238,0.0,0.0,94,0.00,,---,0.00,VWS V14.00,2013-12-10 09:20:00,
2013-12-10 04:25:00,33.2,31.7,29.93,WSW,238,0.0,0.0,94,0.00,,---,0.00,VWS V14.00,2013-12-10 09:25:00,
2013-12-10 04:30:00,33.2,31.7,29.92,WSW,238,0.0,0.0,94,0.00,,---,0.00,VWS V14.00,2013-12-10 09:30:00,
2013-12-10 04:35:00,33.2,31.7,29.92,WSW,238,0.0,0.0,94,0.00,,---,0.00,VWS V14.00,2013-12-10 09:35:00,
2013-12-10 04:40:00,33.2,31.7,29.93,WSW,238,0.0,0.0,94,0.00,,---,0.00,VWS V14.00,2013-12-10 09:40:00,
2013-12-10 04:46:00,33.2,31.7,29.92,WSW,238,0.0,0.0,94,0.00,,---,0.00,VWS V14.00,2013-12-10 09:46:00,
2013-12-10 04:51:00,33.2,31.7,29.93,WSW,238,0.0,0.0,94,0.00,,---,0.00,VWS V14.00,2013-12-10 09:51:00,
2013-12-10 04:56:00,33.2,31.7,29.93,WSW,238,0.0,0.0,94,0.00,,---,0.00,VWS V14.00,2013-12-10 09:56:00,
2013-12-10 05:01:00,33.2,31.7,29.92,WSW,238,0.0,0.0,94,0.00,,---,0.00,VWS V14.00,2013-12-10 10:01:00,
2013-12-10 05:06:00,33.2,31.7,29.90,WSW,238,0.0,0.0,94,0.00,,---,0.00,VWS V14.00,2013-12-10 10:06:00,
2013-12-10 05:11:00,33.2,31.7,29.90,WSW,238,0.0,0.0,94,0.00,,---,0.00,VWS V14.00,2013-12-10 10:11:00,
2013-12-10 05:16:00,33.2,31.7,29.89,WSW,238,0.0,0.0,94,0.00,,---,0.00,VWS V14.00,2013-12-10 10:16:00,
2013-12-10 05:21:00,33.2,31.7,29.88,WSW,238,0.0,0.0,94,0.00,,---,0.00,VWS V14.00,2013-12-10 10:21:00,
2013-12-10 05:26:00,33.2,31.7,29.87,WSW,238,0.0,0.0,94,0.00,,---,0.00,VWS V14.00,2013-12-10 10:26:00,
2013-12-10 05:31:00,33.2,31.7,29.86,WSW,238,0.0,0.0,94,0.00,,---,0.00,VWS V14.00,2013-12-10 10:31:00,
2013-12-10 05:36:00,33.2,31.7,29.86,WSW,238,0.0,0.0,94,0.00,,---,0.00,VWS V14.00,2013-12-10 10:36:00,
2013-12-10 05:41:00,33.2,31.7,29.85,WSW,238,0.0,0.0,94,0.00,,---,0.00,VWS V14.00,2013-12-10 10:41:00,
2013-12-10 05:46:00,33.2,31.7,29.85,WSW,238,0.0,0.0,94,0.00,,---,0.00,VWS V14.00,2013-12-10 10:46:00,
2013-12-10 05:51:00,33.2,31.7,29.87,WSW,238,0.0,0.0,94,0.00,,---,0.00,VWS V14.00,2013-12-10 10:51:00,
2013-12-10 05:56:00,34.1,32.6,29.86,SSW,210,0.0,0.0,94,0.00,,---,0.00,VWS V14.00,2013-12-10 10:56:00,
2013-12-10 06:01:00,34.1,32.3,29.88,SW,229,2.0,3.0,93,0.00,,---,0.00,VWS V14.00,2013-12-10 11:01:00,
2013-12-10 06:07:00,34.3,32.5,29.89,WSW,257,1.0,5.0,93,0.00,,---,0.00,VWS V14.00,2013-12-10 11:07:00,
2013-12-10 06:12:00,34.3,32.5,29.89,WSW,255,0.0,1.0,93,0.00,,---,0.00,VWS V14.00,2013-12-10 11:12:00,
2013-12-10 06:17:00,34.4,32.6,29.89,SSW,205,0.0,2.0,93,0.00,,---,0.00,VWS V14.00,2013-12-10 11:17:00,
2013-12-10 06:22:00,34.5,32.4,29.89,WSW,241,0.0,0.0,92,0.00,,---,0.00,VWS V14.00,2013-12-10 11:22:00,
2013-12-10 06:27:00,34.7,32.6,29.91,WSW,247,2.0,3.0,92,0.00,,---,0.00,VWS V14.00,2013-12-10 11:27:00,
2013-12-10 06:32:00,34.8,32.7,29.91,WSW,240,3.0,4.0,92,0.00,,---,0.00,VWS V14.00,2013-12-10 11:32:00,
2013-12-10 06:37:00,34.9,32.8,29.91,SSW,208,2.0,4.0,92,0.00,,---,0.00,VWS V14.00,2013-12-10 11:37:00,
2013-12-10 06:42:00,35.0,32.9,29.90,SW,226,0.0,2.0,92,0.00,,---,0.00,VWS V14.00,2013-12-10 11:42:00,
2013-12-10 06:47:00,34.9,32.5,29.90,SW,228,0.0,0.0,91,0.00,,---,0.00,VWS V14.00,2013-12-10 11:47:00,
2013-12-10 06:52:00,34.9,32.8,29.91,WNW,301,0.0,2.0,92,0.00,,---,0.00,VWS V14.00,2013-12-10 11:52:00,
2013-12-10 06:57:00,35.0,32.9,29.92,WNW,302,1.0,2.0,92,0.00,,---,0.00,VWS V14.00,2013-12-10 11:57:00,
2013-12-10 07:02:00,35.0,32.9,29.93,NW,306,3.0,4.0,92,0.00,,---,0.00,VWS V14.00,2013-12-10 12:02:00,
2013-12-10 07:07:00,35.1,32.7,29.93,WNW,297,3.0,5.0,91,0.00,,---,0.00,VWS V14.00,2013-12-10 12:07:00,
2013-12-10 07:12:00,35.0,32.4,29.92,WNW,295,2.0,7.0,90,0.01,,---,0.01,VWS V14.00,2013-12-10 12:12:00,
2013-12-10 07:17:00,34.6,32.2,29.91,NW,315,3.0,6.0,91,0.01,,---,0.01,VWS V14.00,2013-12-10 12:17:00,
2013-12-10 07:23:00,33.8,31.7,29.91,West,279,2.0,2.0,92,0.01,,---,0.01,VWS V14.00,2013-12-10 12:23:00,
2013-12-10 07:28:00,33.1,31.0,29.91,WNW,299,2.0,2.0,92,0.01,,---,0.01,VWS V14.00,2013-12-10 12:28:00,
2013-12-10 07:33:00,33.1,31.0,29.91,WNW,299,2.0,2.0,92,0.01,,---,0.01,VWS V14.00,2013-12-10 12:33:00,
2013-12-10 07:38:00,33.1,31.0,29.91,WNW,299,2.0,2.0,92,0.01,,---,0.01,VWS V14.00,2013-12-10 12:38:00,
2013-12-10 07:43:00,33.1,31.0,29.91,WNW,299,2.0,2.0,92,0.01,,---,0.01,VWS V14.00,2013-12-10 12:43:00,
2013-12-10 07:48:00,33.1,31.0,29.90,WNW,299,2.0,2.0,92,0.01,,---,0.01,VWS V14.00,2013-12-10 12:48:00,
2013-12-10 07:53:00,33.1,31.0,29.90,WNW,299,2.0,2.0,92,0.01,,---,0.01,VWS V14.00,2013-12-10 12:53:00,
2013-12-10 07:58:00,33.1,31.0,29.90,WNW,299,2.0,2.0,92,0.01,,---,0.01,VWS V14.00,2013-12-10 12:58:00,
2013-12-10 08:03:00,33.1,31.0,29.91,WNW,299,2.0,2.0,92,0.01,,---,0.01,VWS V14.00,2013-12-10 13:03:00,
2013-12-10 08:08:00,33.1,31.0,29.91,WNW,299,2.0,2.0,92,0.01,,---,0.01,VWS V14.00,2013-12-10 13:08:00,
2013-12-10 08:13:00,33.1,31.0,29.90,WNW,299,2.0,2.0,92,0.00,,---,0.01,VWS V14.00,2013-12-10 13:13:00,
2013-12-10 08:18:00,33.1,31.0,29.91,WNW,299,2.0,2.0,92,0.00,,---,0.01,VWS V14.00,2013-12-10 13:18:00,
2013-12-10 08:23:00,33.1,31.0,29.90,WNW,299,2.0,2.0,92,0.00,,---,0.01,VWS V14.00,2013-12-10 13:23:00,
2013-12-10 08:29:00,33.1,31.0,29.91,WNW,299,2.0,2.0,92,0.00,,---,0.01,VWS V14.00,2013-12-10 13:29:00,
2013-12-10 08:34:00,33.1,31.0,29.91,WNW,299,2.0,2.0,92,0.00,,---,0.01,VWS V14.00,2013-12-10 13:34:00,
2013-12-10 08:39:00,33.1,31.0,29.90,WNW,299,2.0,2.0,92,0.00,,---,0.01,VWS V14.00,2013-12-10 13:39:00,
2013-12-10 08:44:00,33.1,31.0,29.90,WNW,299,2.0,2.0,92,0.00,,---,0.01,VWS V14.00,2013-12-10 13:44:00,
2013-12-10 08:49:00,33.1,31.0,29.89,WNW,299,2.0,2.0,92,0.00,,---,0.01,VWS V14.00,2013-12-10 13:49:00,
2013-12-10 08:54:00,33.1,31.0,29.89,WNW,299,2.0,2.0,92,0.00,,---,0.01,VWS V14.00,2013-12-10 13:54:00,
2013-12-10 08:59:00,33.1,31.0,29.89,WNW,299,2.0,2.0,92,0.00,,---,0.01,VWS V14.00,2013-12-10 13:59:00,
2013-12-10 09:04:00,33.1,31.0,29.89,WNW,299,2.0,2.0,92,0.00,,---,0.01,VWS V14.00,2013-12-10 14:04:00,
2013-12-10 09:09:00,33.1,31.0,29.90,WNW,299,2.0,2.0,92,0.00,,---,0.01,VWS V14.00,2013-12-10 14:09:00,
2013-12-10 09:14:00,33.1,31.0,29.91,WNW,299,2.0,2.0,92,0.00,,---,0.01,VWS V14.00,2013-12-10 14:14:00,
2013-12-10 09:19:00,33.1,31.0,29.91,WNW,299,2.0,2.0,92,0.00,,---,0.01,VWS V14.00,2013-12-10 14:19:00,
2013-12-10 09:25:00,33.1,31.0,29.90,WNW,299,2.0,2.0,92,0.00,,---,0.01,VWS V14.00,2013-12-10 14:25:00,
2013-12-10 09:30:00,33.1,31.0,29.90,WNW,299,2.0,2.0,92,0.00,,---,0.01,VWS V14.00,2013-12-10 14:30:00,
2013-12-10 09:35:00,33.1,31.0,29.90,WNW,299,2.0,2.0,92,0.00,,---,0.01,VWS V14.00,2013-12-10 14:35:00,
2013-12-10 09:40:00,33.1,31.0,29.89,WNW,299,2.0,2.0,92,0.00,,---,0.01,VWS V14.00,2013-12-10 14:40:00,
2013-12-10 09:45:00,33.1,31.0,29.89,WNW,299,2.0,2.0,92,0.00,,---,0.01,VWS V14.00,2013-12-10 14:45:00,
2013-12-10 09:50:00,33.1,31.0,29.90,WNW,299,2.0,2.0,92,0.00,,---,0.01,VWS V14.00,2013-12-10 14:50:00,
2013-12-10 09:55:00,33.1,31.0,29.89,WNW,299,2.0,2.0,92,0.00,,---,0.01,VWS V14.00,2013-12-10 14:55:00,
2013-12-10 10:00:00,33.1,31.0,29.88,WNW,299,2.0,2.0,92,0.00,,---,0.01,VWS V14.00,2013-12-10 15:00:00,
2013-12-10 10:05:00,33.1,31.0,29.88,WNW,299,2.0,2.0,92,0.00,,---,0.01,VWS V14.00,2013-12-10 15:05:00,
2013-12-10 10:10:00,33.1,31.0,29.87,WNW,299,2.0,2.0,92,0.00,,---,0.01,VWS V14.00,2013-12-10 15:10:00,
2013-12-10 10:15:00,33.1,31.0,29.87,WNW,299,2.0,2.0,92,0.00,,---,0.01,VWS V14.00,2013-12-10 15:15:00,
2013-12-10 10:20:00,33.1,31.0,29.87,WNW,299,2.0,2.0,92,0.00,,---,0.01,VWS V14.00,2013-12-10 15:20:00,
2013-12-10 10:25:00,33.1,31.0,29.86,WNW,299,2.0,2.0,92,0.00,,---,0.01,VWS V14.00,2013-12-10 15:25:00,
2013-12-10 10:30:00,33.1,31.0,29.86,WNW,299,2.0,2.0,92,0.00,,---,0.01,VWS V14.00,2013-12-10 15:30:00,
2013-12-10 10:36:00,33.1,31.0,29.85,WNW,299,2.0,2.0,92,0.00,,---,0.01,VWS V14.00,2013-12-10 15:36:00,
2013-12-10 10:41:00,33.1,31.0,29.84,WNW,299,2.0,2.0,92,0.00,,---,0.01,VWS V14.00,2013-12-10 15:41:00,
2013-12-10 10:46:00,33.1,31.0,29.84,WNW,299,2.0,2.0,92,0.00,,---,0.01,VWS V14.00,2013-12-10 15:46:00,
2013-12-10 10:51:00,33.1,31.0,29.83,WNW,299,2.0,2.0,92,0.00,,---,0.01,VWS V14.00,2013-12-10 15:51:00,
2013-12-10 10:56:00,33.1,31.0,29.83,WNW,299,2.0,2.0,92,0.00,,---,0.01,VWS V14.00,2013-12-10 15:56:00,
2013-12-10 11:01:00,33.1,31.0,29.83,WNW,299,2.0,2.0,92,0.00,,---,0.01,VWS V14.00,2013-12-10 16:01:00,
2013-12-10 11:06:00,33.1,31.0,29.82,WNW,299,2.0,2.0,92,0.00,,---,0.01,VWS V14.00,2013-12-10 16:06:00,
2013-12-10 11:11:00,33.3,31.8,29.83,West,271,6.0,7.0,94,0.00,,---,0.01,VWS V14.00,2013-12-10 16:11:00,
2013-12-10 11:16:00,33.1,31.6,29.83,WNW,292,3.0,5.0,94,0.00,,---,0.01,VWS V14.00,2013-12-10 16:16:00,
2013-12-10 11:21:00,32.9,31.4,29.84,NW,306,4.0,7.0,94,0.00,,---,0.01,VWS V14.00,2013-12-10 16:21:00,
2013-12-10 11:26:00,32.9,31.1,29.83,WNW,291,3.0,7.0,93,0.00,,---,0.01,VWS V14.00,2013-12-10 16:26:00,
2013-12-10 11:31:00,32.9,31.1,29.82,WNW,289,3.0,4.0,93,0.00,,---,0.01,VWS V14.00,2013-12-10 16:31:00,
2013-12-10 11:36:00,32.9,31.1,29.82,WNW,294,2.0,3.0,93,0.00,,---,0.01,VWS V14.00,2013-12-10 16:36:00,
2013-12-10 11:41:00,33.0,31.2,29.82,West,262,0.0,3.0,93,0.00,,---,0.01,VWS V14.00,2013-12-10 16:41:00,
2013-12-10 11:47:00,33.1,31.3,29.82,West,273,3.0,6.0,93,0.00,,---,0.01,VWS V14.00,2013-12-10 16:47:00,
2013-12-10 11:52:00,33.1,31.3,29.83,WNW,285,2.0,5.0,93,0.00,,---,0.01,VWS V14.00,2013-12-10 16:52:00,
2013-12-10 11:57:00,33.2,31.4,29.81,West,270,0.0,2.0,93,0.00,,---,0.01,VWS V14.00,2013-12-10 16:57:00,
2013-12-10 12:02:00,33.3,31.5,29.81,WNW,291,1.0,4.0,93,0.00,,---,0.01,VWS V14.00,2013-12-10 17:02:00,
2013-12-10 12:07:00,33.5,31.7,29.81,WNW,289,3.0,4.0,93,0.00,,---,0.01,VWS V14.00,2013-12-10 17:07:00,
2013-12-10 12:12:00,33.7,31.9,29.81,WSW,249,2.0,3.0,93,0.00,,---,0.01,VWS V14.00,2013-12-10 17:12:00,
2013-12-10 12:17:00,33.8,32.0,29.79,WNW,289,2.0,4.0,93,0.00,,---,0.01,VWS V14.00,2013-12-10 17:17:00,
2013-12-10 12:22:00,33.8,32.0,29.79,WNW,302,2.0,6.0,93,0.00,,---,0.01,VWS V14.00,2013-12-10 17:22:00,
2013-12-10 12:27:00,33.8,32.0,29.79,WSW,239,1.0,4.0,93,0.00,,---,0.01,VWS V14.00,2013-12-10 17:27:00,
2013-12-10 12:32:00,33.9,32.1,29.81,West,271,1.0,4.0,93,0.00,,---,0.01,VWS V14.00,2013-12-10 17:32:00,
2013-12-10 12:37:00,34.0,32.2,29.81,SW,231,2.0,3.0,93,0.00,,---,0.01,VWS V14.00,2013-12-10 17:37:00,
2013-12-10 12:42:00,33.9,32.1,29.81,West,269,4.0,6.0,93,0.00,,---,0.01,VWS V14.00,2013-12-10 17:42:00,
2013-12-10 12:47:00,33.8,32.0,29.81,WNW,283,3.0,8.0,93,0.00,,---,0.01,VWS V14.00,2013-12-10 17:47:00,
2013-12-10 12:52:00,33.8,32.0,29.80,WSW,253,4.0,8.0,93,0.00,,---,0.01,VWS V14.00,2013-12-10 17:52:00,
2013-12-10 12:57:00,33.7,31.9,29.80,WNW,291,4.0,6.0,93,0.00,,---,0.01,VWS V14.00,2013-12-10 17:57:00,
2013-12-10 13:02:00,33.7,31.9,29.80,WNW,285,4.0,5.0,93,0.00,,---,0.01,VWS V14.00,2013-12-10 18:02:00,
2013-12-10 13:07:00,33.8,32.0,29.80,WSW,252,1.0,4.0,93,0.00,,---,0.01,VWS V14.00,2013-12-10 18:07:00,
2013-12-10 13:12:00,33.9,32.1,29.80,West,278,0.0,5.0,93,0.00,,---,0.01,VWS V14.00,2013-12-10 18:12:00,
2013-12-10 13:17:00,34.0,32.2,29.80,WNW,282,2.0,5.0,93,0.00,,---,0.01,VWS V14.00,2013-12-10 18:17:00,
2013-12-10 13:22:00,34.1,32.0,29.80,West,274,3.0,6.0,92,0.00,,---,0.01,VWS V14.00,2013-12-10 18:22:00,
2013-12-10 13:27:00,34.1,32.0,29.80,WNW,289,2.0,6.0,92,0.00,,---,0.01,VWS V14.00,2013-12-10 18:27:00,
2013-12-10 13:32:00,34.1,32.3,29.80,NW,311,2.0,4.0,93,0.00,,---,0.01,VWS V14.00,2013-12-10 18:32:00,
2013-12-10 13:37:00,34.2,32.4,29.80,WNW,284,0.0,3.0,93,0.00,,---,0.01,VWS V14.00,2013-12-10 18:37:00,
2013-12-10 13:42:00,34.1,32.3,29.80,West,265,2.0,6.0,93,0.00,,---,0.01,VWS V14.00,2013-12-10 18:42:00,
2013-12-10 13:47:00,34.1,32.0,29.80,West,281,3.0,8.0,92,0.00,,---,0.01,VWS V14.00,2013-12-10 18:47:00,
2013-12-10 13:52:00,34.0,31.9,29.80,SW,225,1.0,5.0,92,0.00,,---,0.01,VWS V14.00,2013-12-10 18:52:00,
2013-12-10 13:58:00,34.0,31.9,29.80,WNW,297,3.0,5.0,92,0.00,,---,0.01,VWS V14.00,2013-12-10 18:58:00,
2013-12-10 14:03:00,33.9,31.8,29.80,SW,224,2.0,3.0,92,0.00,,---,0.01,VWS V14.00,2013-12-10 19:03:00,
2013-12-10 14:08:00,33.7,31.6,29.80,WNW,294,3.0,5.0,92,0.00,,---,0.01,VWS V14.00,2013-12-10 19:08:00,
2013-12-10 14:13:00,33.7,31.4,29.80,WNW,290,6.0,9.0,91,0.00,,---,0.01,VWS V14.00,2013-12-10 19:13:00,
2013-12-10 14:18:00,33.6,31.5,29.80,WSW,251,3.0,5.0,92,0.00,,---,0.01,VWS V14.00,2013-12-10 19:18:00,
2013-12-10 14:23:00,33.6,31.5,29.80,WNW,290,2.0,2.0,92,0.00,,---,0.01,VWS V14.00,2013-12-10 19:23:00,
2013-12-10 14:28:00,33.7,31.6,29.80,SW,235,1.0,3.0,92,0.00,,---,0.01,VWS V14.00,2013-12-10 19:28:00,
2013-12-10 14:33:00,33.7,31.6,29.80,West,262,1.0,5.0,92,0.00,,---,0.01,VWS V14.00,2013-12-10 19:33:00,
2013-12-10 14:38:00,33.8,31.7,29.81,West,270,7.0,7.0,92,0.00,,---,0.01,VWS V14.00,2013-12-10 19:38:00,
2013-12-10 14:43:00,33.7,31.6,29.81,West,278,3.0,6.0,92,0.00,,---,0.01,VWS V14.00,2013-12-10 19:43:00,
2013-12-10 14:48:00,33.7,31.6,29.81,WNW,287,7.0,7.0,92,0.00,,---,0.01,VWS V14.00,2013-12-10 19:48:00,
2013-12-10 14:53:00,33.7,31.6,29.81,WNW,287,1.0,5.0,92,0.00,,---,0.01,VWS V14.00,2013-12-10 19:53:00,
2013-12-10 14:58:00,33.7,31.6,29.81,NW,307,2.0,6.0,92,0.00,,---,0.01,VWS V14.00,2013-12-10 19:58:00,
2013-12-10 15:04:00,33.9,31.6,29.81,NNW,348,1.0,4.0,91,0.00,,---,0.01,VWS V14.00,2013-12-10 20:04:00,
2013-12-10 15:09:00,33.9,31.6,29.82,West,259,3.0,4.0,91,0.00,,---,0.01,VWS V14.00,2013-12-10 20:09:00,
2013-12-10 15:14:00,34.0,31.4,29.82,West,267,7.0,7.0,90,0.00,,---,0.01,VWS V14.00,2013-12-10 20:14:00,
2013-12-10 15:19:00,34.0,31.1,29.82,WNW,293,5.0,8.0,89,0.00,,---,0.01,VWS V14.00,2013-12-10 20:19:00,
2013-12-10 15:24:00,34.0,30.8,29.83,NNW,328,3.0,6.0,88,0.00,,---,0.01,VWS V14.00,2013-12-10 20:24:00,
2013-12-10 15:29:00,34.1,30.9,29.84,NNW,332,2.0,4.0,88,0.00,,---,0.01,VWS V14.00,2013-12-10 20:29:00,
2013-12-10 15:34:00,33.9,30.2,29.83,West,271,6.0,11.0,86,0.00,,---,0.01,VWS V14.00,2013-12-10 20:34:00,
2013-12-10 15:39:00,33.8,29.8,29.83,WNW,301,3.0,8.0,85,0.00,,---,0.01,VWS V14.00,2013-12-10 20:39:00,
2013-12-10 15:44:00,34.0,29.7,29.84,NW,308,7.0,10.0,84,0.00,,---,0.01,VWS V14.00,2013-12-10 20:44:00,
2013-12-10 15:49:00,34.0,29.7,29.84,WNW,285,4.0,4.0,84,0.00,,---,0.01,VWS V14.00,2013-12-10 20:49:00,
2013-12-10 15:54:00,33.7,29.4,29.83,WNW,285,1.0,4.0,84,0.00,,---,0.01,VWS V14.00,2013-12-10 20:54:00,
2013-12-10 15:59:00,33.5,29.5,29.84,West,278,4.0,8.0,85,0.00,,---,0.01,VWS V14.00,2013-12-10 20:59:00,
2013-12-10 16:04:00,33.3,29.6,29.85,West,278,3.0,6.0,86,0.00,,---,0.01,VWS V14.00,2013-12-10 21:04:00,
2013-12-10 16:10:00,33.1,29.4,29.84,West,280,1.0,11.0,86,0.00,,---,0.01,VWS V14.00,2013-12-10 21:10:00,
2013-12-10 16:15:00,33.1,29.4,29.84,West,277,4.0,4.0,86,0.00,,---,0.01,VWS V14.00,2013-12-10 21:15:00,
2013-12-10 16:20:00,32.9,29.2,29.84,WNW,300,1.0,4.0,86,0.00,,---,0.01,VWS V14.00,2013-12-10 21:20:00,
2013-12-10 16:25:00,32.7,28.7,29.84,WSW,244,0.0,7.0,85,0.00,,---,0.01,VWS V14.00,2013-12-10 21:25:00,
2013-12-10 16:30:00,32.5,28.5,29.84,WNW,293,4.0,5.0,85,0.00,,---,0.01,VWS V14.00,2013-12-10 21:30:00,
2013-12-10 16:35:00,32.4,27.8,29.85,NW,309,4.0,10.0,83,0.00,,---,0.01,VWS V14.00,2013-12-10 21:35:00,
2013-12-10 16:40:00,32.3,27.4,29.85,NW,311,6.0,13.0,82,0.00,,---,0.01,VWS V14.00,2013-12-10 21:40:00,
2013-12-10 16:45:00,32.3,27.4,29.85,NW,304,7.0,8.0,82,0.00,,---,0.01,VWS V14.00,2013-12-10 21:45:00,
2013-12-10 16:50:00,32.2,27.6,29.86,NW,304,3.0,4.0,83,0.00,,---,0.01,VWS V14.00,2013-12-10 21:50:00,
2013-12-10 16:55:00,32.1,27.5,29.86,WNW,287,1.0,7.0,83,0.00,,---,0.01,VWS V14.00,2013-12-10 21:55:00,
2013-12-10 17:00:00,32.1,27.8,29.86,West,276,5.0,10.0,84,0.00,,---,0.01,VWS V14.00,2013-12-10 22:00:00,
2013-12-10 17:05:00,32.2,28.2,29.87,West,268,2.0,9.0,85,0.00,,---,0.01,VWS V14.00,2013-12-10 22:05:00,
2013-12-10 17:10:00,32.2,27.9,29.87,West,264,5.0,8.0,84,0.00,,---,0.01,VWS V14.00,2013-12-10 22:10:00,
2013-12-10 17:15:00,32.2,27.6,29.87,WNW,288,7.0,9.0,83,0.00,,---,0.01,VWS V14.00,2013-12-10 22:15:00,
2013-12-10 17:21:00,32.2,27.3,29.87,West,277,6.0,10.0,82,0.00,,---,0.01,VWS V14.00,2013-12-10 22:21:00,
2013-12-10 17:26:00,32.1,27.2,29.87,West,271,2.0,5.0,82,0.00,,---,0.01,VWS V14.00,2013-12-10 22:26:00,
2013-12-10 17:31:00,32.0,27.1,29.88,WNW,285,1.0,6.0,82,0.00,,---,0.01,VWS V14.00,2013-12-10 22:31:00,
2013-12-10 17:36:00,31.8,26.9,29.88,West,264,2.0,6.0,82,0.00,,---,0.01,VWS V14.00,2013-12-10 22:36:00,
2013-12-10 17:41:00,31.7,26.8,29.88,West,262,0.0,6.0,82,0.00,,---,0.01,VWS V14.00,2013-12-10 22:41:00,
2013-12-10 17:46:00,31.5,26.9,29.88,WSW,249,6.0,8.0,83,0.00,,---,0.01,VWS V14.00,2013-12-10 22:46:00,
2013-12-10 17:51:00,31.5,26.6,29.89,West,270,0.0,6.0,82,0.00,,---,0.01,VWS V14.00,2013-12-10 22:51:00,
2013-12-10 17:56:00,31.4,26.8,29.89,WNW,287,5.0,5.0,83,0.00,,---,0.01,VWS V14.00,2013-12-10 22:56:00,
2013-12-10 18:01:00,31.3,26.8,29.89,WSW,241,2.0,6.0,83,0.00,,---,0.01,VWS V14.00,2013-12-10 23:01:00,
2013-12-10 18:06:00,31.3,26.8,29.89,West,276,3.0,5.0,83,0.00,,---,0.01,VWS V14.00,2013-12-10 23:06:00,
2013-12-10 18:11:00,31.1,26.8,29.90,WSW,242,4.0,8.0,84,0.00,,---,0.01,VWS V14.00,2013-12-10 23:11:00,
2013-12-10 18:16:00,31.0,26.7,29.90,WNW,297,2.0,8.0,84,0.00,,---,0.01,VWS V14.00,2013-12-10 23:16:00,
2013-12-10 18:21:00,30.8,26.5,29.90,West,270,3.0,6.0,84,0.00,,---,0.01,VWS V14.00,2013-12-10 23:21:00,
2013-12-10 18:26:00,30.7,26.7,29.90,NW,309,6.0,6.0,85,0.00,,---,0.01,VWS V14.00,2013-12-10 23:26:00,
2013-12-10 18:31:00,30.6,26.6,29.90,WNW,294,4.0,7.0,85,0.00,,---,0.01,VWS V14.00,2013-12-10 23:31:00,
2013-12-10 18:36:00,30.6,26.6,29.90,West,265,2.0,5.0,85,0.00,,---,0.01,VWS V14.00,2013-12-10 23:36:00,
2013-12-10 18:42:00,30.4,26.7,29.90,WNW,294,1.0,6.0,86,0.00,,---,0.01,VWS V14.00,2013-12-10 23:42:00,
2013-12-10 18:47:00,30.2,26.5,29.91,WNW,291,5.0,6.0,86,0.00,,---,0.01,VWS V14.00,2013-12-10 23:47:00,
2013-12-10 18:52:00,30.1,26.4,29.91,West,266,3.0,4.0,86,0.00,,---,0.01,VWS V14.00,2013-12-10 23:52:00,
2013-12-10 18:57:00,30.1,26.4,29.91,NW,308,5.0,9.0,86,0.00,,---,0.01,VWS V14.00,2013-12-10 23:57:00,
2013-12-10 19:02:00,30.1,26.1,29.91,West,262,4.0,8.0,85,0.00,,---,0.01,VWS V14.00,2013-12-11 00:02:00,
2013-12-10 19:07:00,30.1,26.1,29.92,WNW,285,4.0,6.0,85,0.00,,---,0.01,VWS V14.00,2013-12-11 00:07:00,
2013-12-10 19:12:00,30.1,26.1,29.92,West,266,6.0,7.0,85,0.00,,---,0.01,VWS V14.00,2013-12-11 00:12:00,
2013-12-10 19:17:00,30.1,25.9,29.92,WSW,249,3.0,6.0,84,0.00,,---,0.01,VWS V14.00,2013-12-11 00:17:00,
2013-12-10 19:22:00,30.0,25.8,29.93,West,274,6.0,6.0,84,0.00,,---,0.01,VWS V14.00,2013-12-11 00:22:00,
2013-12-10 19:27:00,30.1,25.9,29.93,WNW,301,4.0,7.0,84,0.00,,---,0.01,VWS V14.00,2013-12-11 00:27:00,
2013-12-10 19:32:00,30.2,25.7,29.93,WSW,245,1.0,5.0,83,0.00,,---,0.01,VWS V14.00,2013-12-11 00:32:00,
2013-12-10 19:37:00,30.2,25.7,29.93,WNW,285,1.0,8.0,83,0.00,,---,0.01,VWS V14.00,2013-12-11 00:37:00,
2013-12-10 19:42:00,30.1,25.6,29.93,WNW,290,1.0,4.0,83,0.00,,---,0.01,VWS V14.00,2013-12-11 00:42:00,
2013-12-10 19:47:00,30.1,25.6,29.94,WNW,292,9.0,9.0,83,0.00,,---,0.01,VWS V14.00,2013-12-11 00:47:00,
2013-12-10 19:52:00,30.2,25.4,29.94,WSW,255,4.0,9.0,82,0.00,,---,0.01,VWS V14.00,2013-12-11 00:52:00,
2013-12-10 19:57:00,30.3,25.2,29.94,WSW,257,2.0,9.0,81,0.00,,---,0.01,VWS V14.00,2013-12-11 00:57:00,
2013-12-10 20:02:00,30.2,25.1,29.94,West,276,3.0,10.0,81,0.00,,---,0.01,VWS V14.00,2013-12-11 01:02:00,
2013-12-10 20:07:00,30.2,25.1,29.95,SW,235,4.0,8.0,81,0.00,,---,0.01,VWS V14.00,2013-12-11 01:07:00,
2013-12-10 20:12:00,30.2,24.8,29.95,West,260,6.0,10.0,80,0.00,,---,0.01,VWS V14.00,2013-12-11 01:12:00,
2013-12-10 20:17:00,30.0,24.6,29.95,SW,236,3.0,8.0,80,0.00,,---,0.01,VWS V14.00,2013-12-11 01:17:00,
2013-12-10 20:22:00,30.0,24.6,29.96,West,277,3.0,7.0,80,0.00,,---,0.01,VWS V14.00,2013-12-11 01:22:00,
2013-12-10 20:27:00,29.9,24.5,29.96,West,272,2.0,8.0,80,0.00,,---,0.01,VWS V14.00,2013-12-11 01:27:00,
2013-12-10 20:32:00,29.8,24.7,29.96,WSW,252,3.0,9.0,81,0.00,,---,0.01,VWS V14.00,2013-12-11 01:32:00,
2013-12-10 20:37:00,29.7,24.6,29.96,WNW,288,4.0,7.0,81,0.00,,---,0.01,VWS V14.00,2013-12-11 01:37:00,
2013-12-10 20:42:00,29.6,24.5,29.96,WSW,248,4.0,9.0,81,0.00,,---,0.01,VWS V14.00,2013-12-11 01:42:00,
2013-12-10 20:48:00,29.5,24.1,29.96,WSW,246,8.0,9.0,80,0.00,,---,0.01,VWS V14.00,2013-12-11 01:48:00,
2013-12-10 20:53:00,29.4,23.7,29.96,West,270,4.0,9.0,79,0.00,,---,0.01,VWS V14.00,2013-12-11 01:53:00,
2013-12-10 20:58:00,29.5,23.5,29.96,West,274,5.0,8.0,78,0.00,,---,0.01,VWS V14.00,2013-12-11 01:58:00,
2013-12-10 21:03:00,29.4,23.1,29.96,WNW,293,6.0,11.0,77,0.00,,---,0.01,VWS V14.00,2013-12-11 02:03:00,
2013-12-10 21:08:00,29.4,23.1,29.96,West,277,1.0,2.0,77,0.00,,---,0.01,VWS V14.00,2013-12-11 02:08:00,
2013-12-10 21:13:00,29.2,22.6,29.97,NW,311,3.0,7.0,76,0.00,,---,0.01,VWS V14.00,2013-12-11 02:13:00,
2013-12-10 21:18:00,29.3,22.7,29.97,WNW,296,4.0,5.0,76,0.00,,---,0.01,VWS V14.00,2013-12-11 02:18:00,
2013-12-10 21:23:00,29.2,22.6,29.97,WNW,298,5.0,5.0,76,0.00,,---,0.01,VWS V14.00,2013-12-11 02:23:00,
2013-12-10 21:28:00,28.9,22.6,29.97,WNW,283,4.0,7.0,77,0.00,,---,0.01,VWS V14.00,2013-12-11 02:28:00,
2013-12-10 21:33:00,28.7,22.7,29.98,WNW,295,3.0,6.0,78,0.00,,---,0.01,VWS V14.00,2013-12-11 02:33:00,
2013-12-10 21:38:00,28.7,22.7,29.98,WNW,283,3.0,6.0,78,0.00,,---,0.01,VWS V14.00,2013-12-11 02:38:00,
2013-12-10 21:43:00,28.7,22.4,29.98,West,271,5.0,6.0,77,0.00,,---,0.01,VWS V14.00,2013-12-11 02:43:00,
2013-12-10 21:49:00,28.7,22.4,29.98,West,269,4.0,7.0,77,0.00,,---,0.01,VWS V14.00,2013-12-11 02:49:00,
2013-12-10 21:54:00,28.6,22.3,29.98,West,278,2.0,5.0,77,0.00,,---,0.01,VWS V14.00,2013-12-11 02:54:00,
2013-12-10 21:59:00,28.5,22.2,29.98,WNW,287,3.0,7.0,77,0.00,,---,0.01,VWS V14.00,2013-12-11 02:59:00,
2013-12-10 22:04:00,28.5,22.2,29.98,WNW,291,3.0,5.0,77,0.00,,---,0.01,VWS V14.00,2013-12-11 03:04:00,
2013-12-10 22:09:00,28.3,22.0,29.98,West,264,2.0,6.0,77,0.00,,---,0.01,VWS V14.00,2013-12-11 03:09:00,
2013-12-10 22:14:00,28.3,22.0,29.99,WSW,246,1.0,2.0,77,0.00,,---,0.01,VWS V14.00,2013-12-11 03:14:00,
2013-12-10 22:19:00,28.3,21.7,29.99,WSW,255,4.0,8.0,76,0.00,,---,0.01,VWS V14.00,2013-12-11 03:19:00,
2013-12-10 22:24:00,28.3,21.7,29.99,WSW,253,2.0,5.0,76,0.00,,---,0.01,VWS V14.00,2013-12-11 03:24:00,
2013-12-10 22:29:00,28.2,21.3,29.99,WNW,288,5.0,8.0,75,0.00,,---,0.01,VWS V14.00,2013-12-11 03:29:00,
2013-12-10 22:34:00,28.3,21.1,30.00,West,267,5.0,8.0,74,0.00,,---,0.01,VWS V14.00,2013-12-11 03:34:00,
2013-12-10 22:39:00,28.3,20.8,30.00,West,262,4.0,6.0,73,0.00,,---,0.01,VWS V14.00,2013-12-11 03:39:00,
2013-12-10 22:44:00,28.1,20.6,30.00,SW,229,4.0,8.0,73,0.00,,---,0.01,VWS V14.00,2013-12-11 03:44:00,
2013-12-10 22:49:00,28.0,20.5,30.00,WSW,257,3.0,8.0,73,0.00,,---,0.01,VWS V14.00,2013-12-11 03:49:00,
2013-12-10 22:54:00,27.9,20.4,30.01,WNW,290,4.0,6.0,73,0.00,,---,0.01,VWS V14.00,2013-12-11 03:54:00,
2013-12-10 22:59:00,27.9,20.1,30.01,West,271,4.0,9.0,72,0.00,,---,0.01,VWS V14.00,2013-12-11 03:59:00,
2013-12-10 23:05:00,27.8,20.0,30.02,SW,224,1.0,6.0,72,0.00,,---,0.01,VWS V14.00,2013-12-11 04:05:00,
2013-12-10 23:10:00,27.7,19.5,30.02,WSW,255,3.0,9.0,71,0.00,,---,0.01,VWS V14.00,2013-12-11 04:10:00,
2013-12-10 23:15:00,27.7,19.5,30.02,West,276,3.0,6.0,71,0.00,,---,0.01,VWS V14.00,2013-12-11 04:15:00,
2013-12-10 23:20:00,27.5,19.7,30.03,West,264,6.0,7.0,72,0.00,,---,0.01,VWS V14.00,2013-12-11 04:20:00,
2013-12-10 23:25:00,27.5,19.7,30.03,West,269,3.0,9.0,72,0.00,,---,0.01,VWS V14.00,2013-12-11 04:25:00,
2013-12-10 23:30:00,27.6,19.4,30.03,WSW,249,5.0,8.0,71,0.00,,---,0.01,VWS V14.00,2013-12-11 04:30:00,
2013-12-10 23:35:00,27.7,19.2,30.03,SW,233,3.0,9.0,70,0.00,,---,0.01,VWS V14.00,2013-12-11 04:35:00,
2013-12-10 23:40:00,27.7,19.2,30.03,West,263,6.0,12.0,70,0.00,,---,0.01,VWS V14.00,2013-12-11 04:40:00,
2013-12-10 23:45:00,27.8,18.6,30.03,WSW,257,4.0,12.0,68,0.00,,---,0.01,VWS V14.00,2013-12-11 04:45:00,
2013-12-10 23:50:00,28.0,18.5,30.04,West,266,7.0,12.0,67,0.00,,---,0.01,VWS V14.00,2013-12-11 04:50:00,
2013-12-10 23:55:00,28.0,18.1,30.04,SW,231,14.0,14.0,66,0.00,,---,0.01,VWS V14.00,2013-12-11 04:55:00,